Location: Lafig�re
(44.4503°N, 4.0357°E)
Time: 20:24:24
(UTC+00:00)

BlueWalker 3 - Pass Details

Date: 11 December 2022
Orbit: 499 x 517 km, 53.2° (Epoch: 04 February)

Event Time Altitude Azimuth Distance (km) Brightness Sun altitude
Rises 18:11:53 0° 297° (WNW) 2,624 6.4 -21.9°
Reaches altitude 10° 18:14:18 10° 285° (WNW) 1,730 5.5 -22.3°
Maximum altitude 18:17:39 27° 226° (SW) 988 3.9 -22.9°
Enters shadow 18:20:15 14° 174° (S) 1,471 4.3 -23.4°
